Stations météo

Publicité
Agen, France (7524): Température de l'air & dewpoint: 20.09.2020 04:00:00 - 26.09.2020 04:00:00 (CEST)Agen, France (7524): Température de l'air 5cm: 20.09.2020 04:00:00 - 26.09.2020 04:00:00 (CEST)Agen, France (7524): Température de l'air -20cm & Température de l'air -100cm: 20.09.2020 04:00:00 - 26.09.2020 04:00:00 (CEST)Agen, France (7524): Vitesse du vent & gusts: 20.09.2020 04:00:00 - 26.09.2020 04:00:00 (CEST)Agen, France (7524): Direction du vent: 20.09.2020 04:00:00 - 26.09.2020 04:00:00 (CEST)Agen, France (7524): reduced air pressure: 20.09.2020 04:00:00 - 26.09.2020 04:00:00 (CEST)Agen, France (7524): visibility: 20.09.2020 04:00:00 - 26.09.2020 04:00:00 (CEST)Agen, France (7524): Ensoleillement: 20.09.2020 04:00:00 - 26.09.2020 04:00:00 (CEST)Agen, France (7524): Quantités de précipitations: 20.09.2020 04:00:00 - 26.09.2020 04:00:00 (CEST)
Date & Time tt [°C] td [°C] tt 5cm [°C] tt -20cm [°C] tt -100cm [°C] ff [km/h] ff [knt] fx [km/h] fx [knt] dd ppp [hPa] vv [km] sd [min] rr [mm]
26.09.2020 04:00:00 - - - - - - - - - - - - - -
26.09.2020 03:00:00 9,4 7,2 6,0 17,6 20,1 5 3 17 9 W 1019,1 47 0 0,0
26.09.2020 02:00:00 10,0 7,4 7,4 17,7 20,1 11 6 19 11 WSW 1019,3 39 0 0,0
26.09.2020 01:00:00 10,8 8,2 8,5 17,7 20,1 12 7 27 15 W 1019,3 41 0 0,0
26.09.2020 00:00:00 11,2 8,1 9,0 17,8 20,1 12 7 35 19 W 1019,3 39 0 0,0
25.09.2020 23:00:00 12,2 8,3 10,1 17,9 20,1 20 11 39 21 W 1018,7 54 0 0,0
25.09.2020 22:00:00 12,7 8,8 10,2 17,9 20,1 24 13 40 21 W 1018,1 49 0 0,0
25.09.2020 21:00:00 12,7 9,3 10,6 18,0 20,1 23 13 49 26 W 1017,1 53 0 0,0
25.09.2020 20:00:00 12,5 8,8 10,6 18,0 20,2 22 12 42 23 W 1016,0 59 13 0,0
25.09.2020 19:00:00 13,5 8,5 12,3 18,1 20,2 28 15 51 27 W 1015,3 56 1 0,0
25.09.2020 18:00:00 14,1 8,3 14,8 18,1 20,2 31 17 57 31 W 1014,7 50 19 0,0
25.09.2020 17:00:00 13,8 9,0 15,5 18,1 20,2 28 15 47 25 W 1014,7 59 18 0,0
25.09.2020 16:00:00 13,7 9,7 13,3 18,1 20,2 27 15 44 24 W 1014,4 60 20 0,0
25.09.2020 15:00:00 12,3 9,1 11,9 18,2 20,2 22 12 45 25 W 1014,6 50 4 0,2
25.09.2020 14:00:00 12,7 9,7 12,6 18,3 20,2 23 13 43 23 W 1014,6 57 10 0,4
25.09.2020 13:00:00 11,6 9,5 11,0 18,4 20,2 21 12 38 21 W 1014,7 18 10 1,0
25.09.2020 12:00:00 11,1 9,4 10,3 18,6 20,2 16 9 50 27 W 1014,5 20 0 2,6
25.09.2020 11:00:00 10,7 8,6 10,1 18,7 20,2 22 12 39 21 W 1013,3 37 0 0,8
25.09.2020 10:00:00 10,4 8,5 9,9 18,9 20,2 20 11 32 18 W 1013,2 4,5 0 3,1
25.09.2020 09:00:00 10,6 8,5 9,3 19,0 20,2 13 7 51 28 WSW 1011,8 54 0 1,4
25.09.2020 08:00:00 10,6 8,5 9,2 19,2 20,2 20 11 52 28 W 1011,3 15 0 1,4
25.09.2020 07:00:00 10,9 9,0 9,6 19,3 20,2 18 10 56 31 WSW 1011,0 54 0 2,2
25.09.2020 06:00:00 11,8 9,7 10,4 19,4 20,2 18 10 38 20 WSW 1011,2 20 0 0,2
25.09.2020 05:00:00 11,9 9,6 10,3 19,6 20,2 16 9 32 17 WSW 1011,3 50 0 0,0
25.09.2020 04:00:00 12,4 10,3 11,0 19,6 20,2 15 8 40 22 WSW 1011,5 56 0 0,0
25.09.2020 03:00:00 12,6 10,7 11,5 19,7 20,2 20 11 36 19 WSW 1011,5 45 0 0,4
25.09.2020 02:00:00 12,6 10,3 11,5 19,8 20,2 10 5 27 14 W 1011,3 19 0 0,4
25.09.2020 01:00:00 13,3 11,2 12,4 19,9 20,2 17 9 32 18 W 1011,4 16 0 0,6
25.09.2020 00:00:00 13,8 11,3 12,9 20,0 20,3 22 12 51 28 WNW 1011,5 47 0 0,2
24.09.2020 23:00:00 14,9 12,0 14,2 20,0 20,2 27 15 48 26 WNW 1011,0 10 0 0,2
24.09.2020 22:00:00 16,9 12,8 14,4 20,1 20,2 21 11 41 22 W 1010,1 23 0 0,4
24.09.2020 21:00:00 18,4 11,5 15,0 20,1 20,2 15 8 30 16 W 1009,7 38 0 0,0
24.09.2020 20:00:00 18,8 11,6 15,7 20,0 20,2 17 9 43 23 W 1009,4 29 25 0,0
24.09.2020 19:00:00 20,2 12,9 19,7 20,1 20,3 20 11 37 20 W 1009,0 32 56 0,0
24.09.2020 18:00:00 20,2 14,3 22,3 20,1 20,3 16 8 32 17 W 1009,1 32 40 0,0
24.09.2020 17:00:00 19,8 14,2 23,6 20,0 20,3 20 11 44 24 W 1009,4 42 21 0,0
24.09.2020 16:00:00 19,3 15,2 20,1 20,0 20,3 15 8 27 14 W 1010,1 46 25 0,0
24.09.2020 15:00:00 17,8 14,9 18,6 20,0 20,3 12 6 26 14 W 1010,8 43 0 0,0
24.09.2020 14:00:00 17,6 15,8 18,2 20,0 20,2 11 6 21 11 WSW 1011,0 59 0 0,2
24.09.2020 13:00:00 17,6 15,9 18,6 20,0 20,3 9 5 22 12 WSW 1011,1 60 0 0,2
24.09.2020 12:00:00 17,2 15,5 18,3 20,0 20,3 11 6 20 11 WSW 1011,8 6 0 1,0
24.09.2020 11:00:00 17,6 16,1 18,6 20,1 20,3 10 6 20 11 WSW 1011,6 55 0 0,0
24.09.2020 10:00:00 17,3 16,0 17,3 20,1 20,3 10 5 21 12 SW 1011,4 19 0 0,0
24.09.2020 09:00:00 17,1 16,0 16,4 20,2 20,3 8 5 29 15 WSW 1011,5 14 0 0,4
24.09.2020 08:00:00 17,1 16,0 16,3 20,2 20,3 13 7 30 16 SW 1011,4 58 0 0,8
24.09.2020 07:00:00 16,9 15,6 16,3 20,2 20,3 11 6 27 14 SSW 1011,3 3,2 0 3,8
24.09.2020 06:00:00 17,1 15,6 16,0 20,3 20,3 5 3 11 6 ESE 1011,3 19 0 0,2
24.09.2020 05:00:00 17,3 15,6 15,9 20,3 20,3 4 2 14 8 ESE 1011,4 57 0 0,0
24.09.2020 04:00:00 17,6 15,8 16,6 20,4 20,3 9 5 22 12 S 1011,6 20 0 0,6
24.09.2020 03:00:00 18,0 16,0 16,7 20,4 20,3 9 5 20 11 SSW 1012,2 19 0 0,2
24.09.2020 02:00:00 18,4 16,0 17,2 20,4 20,3 12 7 23 13 SW 1012,4 19 0 0,2
24.09.2020 01:00:00 18,7 15,6 16,4 20,5 20,3 7 4 16 9 W 1012,3 55 0 0,0
24.09.2020 00:00:00 18,8 15,3 15,4 20,5 20,3 8 5 15 8 WSW 1011,9 48 0 0,0
23.09.2020 23:00:00 19,2 14,9 16,3 20,6 20,4 10 5 21 12 WSW 1012,0 60 0 0,0
23.09.2020 22:00:00 20,2 15,4 17,0 20,6 20,3 11 6 23 13 W 1011,5 60 0 0,0
23.09.2020 21:00:00 21,0 14,9 18,4 20,6 20,3 12 6 28 15 W 1010,7 60 0 0,0
23.09.2020 20:00:00 22,1 14,7 19,6 20,5 20,3 12 6 36 19 W 1010,0 50 0 0,0
23.09.2020 19:00:00 23,2 14,5 20,4 20,5 20,4 18 10 42 23 W 1009,0 19 0 0,0
23.09.2020 18:00:00 25,3 13,8 25,8 20,4 20,3 25 14 42 23 W 1008,5 50 19 0,0
23.09.2020 17:00:00 25,7 15,1 27,0 20,3 20,4 23 12 37 20 W 1008,5 47 3 0,0
23.09.2020 16:00:00 26,7 13,8 31,0 20,1 20,3 19 11 38 21 WSW 1008,1 36 32 0,0
23.09.2020 15:00:00 26,5 13,9 - - - 16 9 31 17 WSW 1008,6 55 - 0,0
23.09.2020 14:00:00 25,2 18,6 31,1 20,1 20,4 12 7 29 15 ESE 1009,1 28 52 0,0
23.09.2020 13:00:00 22,5 21,1 29,2 20,1 20,4 15 8 28 15 ESE 1009,7 10 58 0,0
23.09.2020 12:00:00 19,3 18,6 19,8 20,1 20,4 19 10 26 14 E 1010,4 10 43 0,0
23.09.2020 11:00:00 16,4 15,9 17,9 20,1 20,4 18 10 25 14 ESE 1010,7 6 0 0,0
23.09.2020 10:00:00 15,9 15,4 16,4 20,2 20,4 13 7 21 12 ESE 1010,7 1,4 0 0,0
23.09.2020 09:00:00 15,6 15,1 15,2 20,2 20,4 12 6 18 10 ESE 1010,9 0,2 0 0,0
23.09.2020 08:00:00 14,8 14,3 14,8 20,3 20,4 7 4 16 9 SE 1011,1 0,2 0 0,0
23.09.2020 07:00:00 14,7 14,1 15,0 20,4 20,4 7 4 11 6 ESE 1011,3 0,1 0 0,0
23.09.2020 06:00:00 15,1 14,5 15,4 20,4 20,4 6 3 8 5 ESE 1011,5 0,1 0 0,0
23.09.2020 05:00:00 15,2 14,6 14,7 20,5 20,4 5 3 9 5 SE 1011,7 0,1 0 0,2
23.09.2020 04:00:00 14,8 14,0 10,7 20,7 20,4 6 3 8 5 ESE 1012,1 0,1 0 0,0
23.09.2020 03:00:00 13,7 12,8 10,3 20,7 20,4 4 2 6 3 ENE 1012,5 1,9 0 0,0
23.09.2020 02:00:00 14,1 13,1 10,2 20,7 20,4 2 1 4 2 SE 1012,9 0,2 0 0,0
23.09.2020 01:00:00 15,0 13,9 10,4 20,8 20,4 0 0 4 2 N 1013,2 0,1 0 0,0
23.09.2020 00:00:00 15,6 14,1 11,3 20,9 20,4 3 2 5 3 WNW 1013,4 0,9 0 0,0
22.09.2020 23:00:00 16,5 14,9 11,8 20,9 20,4 0 0 8 4 N 1013,5 15 0 0,0
22.09.2020 22:00:00 17,8 15,8 14,0 20,9 20,4 5 3 8 4 SW 1013,1 26 0 0,0
22.09.2020 21:00:00 18,7 15,4 15,1 20,9 20,4 3 2 6 3 W 1012,7 40 0 0,0
22.09.2020 20:00:00 20,4 15,8 18,9 20,9 20,4 5 3 13 7 W 1012,4 3,8 18 0,0
22.09.2020 19:00:00 20,4 15,6 19,8 20,8 20,4 6 4 21 12 WSW 1012,5 46 6 0,0
22.09.2020 18:00:00 21,3 16,5 20,8 20,8 20,4 8 4 19 10 W 1012,5 36 8 0,2
22.09.2020 17:00:00 20,7 15,0 21,5 20,7 20,4 19 11 27 15 WNW 1012,9 19 21 0,0
22.09.2020 16:00:00 22,3 15,4 25,6 20,6 20,4 14 8 26 14 NW 1013,3 37 18 0,0
22.09.2020 15:00:00 22,2 16,7 27,6 20,5 20,4 16 9 29 16 WNW 1013,7 32 42 0,0
22.09.2020 14:00:00 20,9 17,9 20,4 20,5 20,4 18 10 26 14 WNW 1014,2 25 9 0,0
22.09.2020 13:00:00 20,4 17,2 24,8 20,5 20,4 16 9 25 13 W 1014,5 46 8 0,0
22.09.2020 12:00:00 19,2 17,9 21,9 20,5 20,4 10 5 19 10 WNW 1014,9 36 0 0,0
22.09.2020 11:00:00 18,8 17,8 20,0 20,5 20,4 10 6 18 10 WNW 1015,0 23 3 0,4
22.09.2020 10:00:00 18,2 17,2 18,9 20,6 20,4 9 5 14 7 W 1014,9 11 0 0,0
22.09.2020 09:00:00 17,8 17,0 17,4 20,6 20,4 6 3 13 7 W 1014,9 17 0 0,0
22.09.2020 08:00:00 17,4 16,4 17,1 20,6 20,4 5 3 13 7 W 1014,8 44 0 0,2
22.09.2020 07:00:00 17,5 16,5 17,2 20,7 20,4 8 5 14 7 W 1014,7 28 0 0,9
22.09.2020 06:00:00 17,7 16,7 17,2 20,7 20,4 4 2 16 9 WNW 1014,8 2,0 0 14,4
22.09.2020 05:00:00 18,0 16,8 17,8 20,9 20,4 5 3 12 6 W 1014,9 1,2 0 3,3
22.09.2020 04:00:00 18,1 16,8 17,6 20,9 20,4 5 3 16 9 SW 1015,2 20 0 2,8
22.09.2020 03:00:00 18,3 16,6 17,8 21,0 20,4 8 4 15 8 W 1015,8 2,7 0 0,8
22.09.2020 02:00:00 18,6 16,9 17,7 21,0 20,4 8 4 15 8 W 1016,0 31 0 0,0
22.09.2020 01:00:00 18,5 16,7 17,4 21,1 20,4 7 4 16 9 WSW 1016,2 32 0 0,0
22.09.2020 00:00:00 18,7 16,8 18,0 21,1 20,4 8 5 16 9 WSW 1016,5 32 0 0,0
21.09.2020 23:00:00 18,8 16,9 17,2 21,2 20,4 7 4 13 7 W 1016,9 33 0 0,0
21.09.2020 22:00:00 18,9 16,7 17,8 21,2 20,4 8 5 17 9 W 1016,7 42 0 0,0
21.09.2020 21:00:00 19,2 17,0 18,4 21,2 20,4 9 5 18 10 W 1016,5 44 0 0,0
21.09.2020 20:00:00 19,5 17,1 18,2 21,2 20,4 8 5 22 12 W 1016,4 16 0 0,0
21.09.2020 19:00:00 20,2 17,4 21,4 21,2 20,4 17 9 30 16 WNW 1016,0 40 26 0,0
21.09.2020 18:00:00 20,2 17,0 21,6 21,1 20,4 14 8 35 19 WNW 1016,2 44 0 0,0
21.09.2020 17:00:00 20,9 16,5 22,5 21,1 20,4 20 11 32 17 W 1015,9 26 32 0,0
21.09.2020 16:00:00 20,2 18,0 21,3 21,0 20,4 9 5 19 10 WSW 1016,1 30 0 0,0
21.09.2020 15:00:00 20,6 18,2 22,4 21,0 20,4 3 1 11 6 S 1016,2 24 12 0,0
21.09.2020 14:00:00 20,4 18,9 22,9 21,0 20,4 8 4 14 8 NNE 1016,7 26 0 0,0
21.09.2020 13:00:00 19,9 18,4 18,3 21,0 20,4 8 4 18 10 NE 1017,1 14 0 6,2
21.09.2020 12:00:00 18,7 15,9 18,3 21,1 20,4 21 11 29 15 W 1017,3 0,6 20 8,9
21.09.2020 11:00:00 20,3 17,7 21,0 21,1 20,4 12 7 21 11 WSW 1017,2 40 0 0,0
21.09.2020 10:00:00 19,4 17,4 20,3 21,1 20,4 11 6 18 10 WSW 1016,9 43 0 0,0
21.09.2020 09:00:00 19,0 17,3 18,1 21,2 20,4 7 4 14 7 W 1016,8 23 0 0,0
21.09.2020 08:00:00 18,6 17,1 17,7 21,2 20,4 5 3 13 7 W 1016,5 18 0 0,0
21.09.2020 07:00:00 18,6 17,1 17,8 21,2 20,4 6 4 16 8 W 1016,2 22 0 0,0
21.09.2020 06:00:00 18,6 17,3 18,0 21,3 20,4 7 4 15 8 WSW 1016,2 22 0 0,0
21.09.2020 05:00:00 18,5 17,0 17,7 21,4 20,4 9 5 16 9 W 1016,1 20 0 0,0
21.09.2020 04:00:00 18,3 16,6 17,1 21,4 20,4 9 5 18 10 W 1016,3 26 0 0,0
21.09.2020 03:00:00 18,2 16,4 16,1 21,5 20,4 9 5 19 10 SW 1016,6 39 0 0,0
21.09.2020 02:00:00 18,2 16,0 16,2 21,5 20,4 10 5 19 10 SW 1016,7 58 0 0,0
21.09.2020 01:00:00 18,7 16,5 15,7 21,6 20,4 8 4 13 7 WSW 1016,6 57 0 0,0
21.09.2020 00:00:00 19,3 16,7 17,2 21,6 20,4 8 4 16 9 W 1016,4 56 0 0,0
20.09.2020 23:00:00 19,5 16,7 18,0 21,6 20,4 9 5 22 12 W 1016,5 57 0 0,0
20.09.2020 22:00:00 20,1 16,3 18,1 21,6 20,4 14 8 27 15 W 1016,2 60 0 0,0
20.09.2020 21:00:00 20,1 15,5 16,6 21,6 20,4 7 4 14 8 WNW 1015,7 60 0 0,0
20.09.2020 20:00:00 21,3 15,4 18,2 21,6 20,4 5 3 26 14 WSW 1014,7 60 1 0,0
20.09.2020 19:00:00 22,7 15,5 22,5 21,5 20,4 15 8 28 15 WSW 1014,1 60 31 0,0
20.09.2020 18:00:00 24,2 15,4 28,3 21,4 20,4 19 11 31 17 W 1013,8 0,2 42 0,0
20.09.2020 17:00:00 23,9 15,7 28,8 21,3 20,4 18 10 31 17 W 1013,9 38 27 0,0
20.09.2020 16:00:00 24,3 16,6 22,5 21,2 20,4 16 9 27 15 W 1013,9 60 30 0,0
20.09.2020 15:00:00 20,7 16,5 22,6 21,1 20,4 17 9 38 21 WNW 1014,6 19 22 0,2
20.09.2020 14:00:00 25,4 16,5 29,4 21,1 20,4 20 11 35 19 SW 1014,1 60 45 0,0
20.09.2020 13:00:00 23,1 16,4 26,3 21,1 20,4 12 7 28 15 WSW 1014,7 57 27 0,0
20.09.2020 12:00:00 21,4 16,4 23,4 21,1 20,4 13 7 29 16 SW 1014,8 20 21 0,0
20.09.2020 11:00:00 20,5 16,9 19,6 21,2 20,4 12 6 26 14 WSW 1014,9 52 14 0,0
20.09.2020 10:00:00 18,9 16,3 17,1 21,2 20,4 7 4 19 11 WSW 1014,7 49 1 0,0
20.09.2020 09:00:00 18,2 16,2 16,6 21,2 20,4 10 5 18 10 SSW 1014,6 60 0 0,0
20.09.2020 08:00:00 17,6 15,9 16,6 21,3 20,4 8 4 16 9 S 1014,2 59 0 0,0
20.09.2020 07:00:00 17,4 15,6 16,6 21,4 20,4 7 4 25 14 S 1014,2 16 0 0,6
20.09.2020 06:00:00 17,7 15,9 16,4 21,4 20,4 8 5 16 9 SSE 1014,1 57 0 0,0
20.09.2020 05:00:00 17,1 15,3 15,0 21,5 20,4 8 5 10 5 E 1014,5 46 0 0,0
20.09.2020 04:00:00 17,3 15,1 15,5 21,6 20,4 7 4 13 7 SE 1014,7 52 0 0,0

tt = Température de l'air
td = dewpoint
tt 5cm = Température de l'air 5cm
tt -20cm = Température de l'air -20cm
tt -100cm = Température de l'air -100cm
ff = Vitesse du vent
fx = gusts
dd = Direction du vent
ppp = reduced air pressure
vv = visibility
sd = Ensoleillement
rr = Quantités de précipitations

stations d'obs. à proximité